Location: �perlecques
(50.8057°N, 2.1521°E)
Time: 19:39:58
(UTC+00:00)

Vanguard 1 Rocket - Pass Details

Date: 07 August 2021
Orbit: 650 x 4226 km, 34.3° (Epoch: 25 September)

Event Time Altitude Azimuth Distance (km) Brightness Sun altitude
Rises 04:26:21 0° 171° (S) 8,371 12.1 -0.9°
Reaches altitude 10° 04:40:25 10° 143° (SE) 7,357 12.2 1.1°
Maximum altitude 04:45:41 11° 131° (SE) 7,106 12.3 1.8°
Drops below altitude 10° 04:50:41 10° 119° (ESE) 6,975 12.5 2.6°
Sets 05:02:04 0° 91° (E) 7,193 13.5 4.2°
